Regional Weather Roundup
Issued by NWS Portland, ME

Current Version | Previous Version | Text Only | Print | Product List | Glossary Off
Versions: 1 2 3 4 5 6 7 8 9 10 11 12 13 14 15 16 17 18 19 20 21 22 23 24 25 26 27 28 29 30 31 32 33 34 35 36 37 38 39 40 41 42 43 44 45 46 47 48 49 50
000 ASUS41 KGYX 250010 RWRGYX WEATHER ROUNDUP FOR MAINE AND NEW HAMPSHIRE NATIONAL WEATHER SERVICE GRAY ME 800 PM EDT TUE APR 24 2018 MEZ002-005-006-010-012-015-018-020-021-024-026-027-029-250100- MAINE CITY SKY/WX TMP DP RH WIND PRES REMARKS PORTLAND MOCLDY 51 38 60 S16G22 30.21S 6HR MIN TEMP: 51; 6HR MAX TEMP: 63; SANFORD FAIR 57 37 47 S9 30.20S BAR HARBOR FAIR 45 39 79 S12 30.25S WISCASSET FAIR 51 39 63 S6 30.24S 6HR MIN TEMP: 51; 6HR MAX TEMP: 63; ROCKLAND FAIR 47 39 74 SW10G17 30.24S FRYEBURG FAIR 62 32 32 S6 30.16S 6HR MIN TEMP: 62; 6HR MAX TEMP: 75; LEWISTONAUBURN FAIR 55 36 48 S9 30.18S AUGUSTA FAIR 52 37 56 S10 30.20S 6HR MIN TEMP: 52; 6HR MAX TEMP: 71; WATERVILLE FAIR 53 36 52 VRB7 30.17R BANGOR FAIR 51 36 56 S12 30.20R 6HR MIN TEMP: 51; 6HR MAX TEMP: 70; GREENVILLE N/A 55 26 32 S5 30.13R 6HR MIN TEMP: 55; 6HR MAX TEMP: 68; MILLINOCKET FAIR 59 28 30 S6 30.14R 6HR MIN TEMP: 59; 6HR MAX TEMP: 72; HOULTON FAIR 60 30 32 S6 30.10R 6HR MIN TEMP: 60; 6HR MAX TEMP: 71; PRESQUE ISLE FAIR 52 34 50 CALM 30.09S 6HR MIN TEMP: 52; 6HR MAX TEMP: 69; FRENCHVILLE FAIR 59 32 36 SW8 30.06S 6HR MIN TEMP: 59; 6HR MAX TEMP: 65; CARIBOU FAIR 58 30 34 SW6 30.07S 6HR MIN TEMP: 57; 6HR MAX TEMP: 66; $$ NHZ002-005-008-009-011-012-014-250100- NEW HAMPSHIRE CITY SKY/WX TMP DP RH WIND PRES REMARKS PORTSMOUTH CLOUDY 58 36 45 S9 30.20R ROCHESTER FAIR 59 38 45 S8 30.19S 6HR MIN TEMP: 59; 6HR MAX TEMP: 74; NASHUA FAIR 61 31 32 VRB5 30.22R MANCHESTER MOCLDY 65 28 24 S14G21 30.19S 6HR MIN TEMP: 65; 6HR MAX TEMP: 74; CONCORD FAIR 63 27 25 S9 30.18F 6HR MIN TEMP: 63; 6HR MAX TEMP: 73; LACONIA FAIR 63 22 20 SW9 30.17S PLYMOUTH FAIR 62 20 20 CALM 30.15S BERLIN FAIR 50 31 48 CALM 30.13S 6HR MIN TEMP: 50; 6HR MAX TEMP: 75; WHITEFIELD FAIR 57 29 34 CALM 30.14S 6HR MIN TEMP: 56; 6HR MAX TEMP: 73; JAFFREY FAIR 58 28 32 S7 30.21S 6HR MIN TEMP: 58; 6HR MAX TEMP: 67; KEENE FAIR 59 28 30 S8 30.20S LEBANON FAIR 63 26 24 S12 30.15R 6HR MIN TEMP: 63; 6HR MAX TEMP: 73; MT WASHINGTON MOCLDY 36 28 75 SW24 N/A 6HR MIN TEMP: 36; 6HR MAX TEMP: 43; $$ VTZ005-007-008-250100- VERMONT CITY SKY/WX TMP DP RH WIND PRES REMARKS ST JOHNSBURY N/A 64 23 21 MISG 30.11S MONTPELIER FAIR 56 29 35 CALM 30.16F BURLINGTON MOCLDY 66 17 15 S9 30.09F $$ MAZ007-012-024-CTZ003-RIZ002-NYZ038-NYZ072-250100- SOUTHERN NEW ENGLAND AND NY CITY SKY/WX TMP DP RH WIND PRES REMARKS BOSTON CLOUDY 55 31 39 S15 30.26S WORCESTER FAIR 53 37 54 S8 30.25R NANTUCKET FAIR 45 44 97 SE8 30.32S PROVIDENCE CLOUDY 52 42 69 S10 30.29S HARTFORD CLOUDY 58 38 47 S12 30.24R ALBANY CLOUDY 62 32 32 S17G25 30.15F NEW YORK CITY CLOUDY 58 39 49 SE12 30.22S $$ ANZ081-ANZ082-ANZ150-NHZ014-MEZ023>029-250100- COASTAL MARINE OBSERVATIONS STATION/POSITION TIME TEMP WIND PRES WAVE AIR SEA DIR/SP/G HT/PER (UTC) (F) (DEG/KT/KT) (MB) (FT/S) MOUNT DESERT ROC 0000 45 180/ 23/ 25 1024.7R JEFFREYS LEDGE 2336 42 N/A 4/ 5 CASHES LEDGE BUO 2350 45 42 1024.2F 4/ 5 $$ .............KEY.............. WCI - WIND CHILL TC - TEMPERATURE IN CELSIUS VSB - VISIBILITY IN MILES HX - HEAT INDEX FAIR- INDICATES FEW OR NO CLOUDS BELOW 12,000 FT, WITH NO SIGNIFICANT WEATHER AND/OR OBSTRUCTIONS TO VISIBILITY.

USA.gov is the U.S. government's official web portal to all federal, state and local government web resources and services.